This demonstration page uses our WeatherBlox Daily Observations layout. Learn more.

Left ArrowRight Arrow

Hourly Observations for October 28, 2016

Temp ( °F °C ) Dew Point ( °F °C ) Humidity (%) Winds ( mph kmh ) Pressure ( in mb ) Visibility ( mi km ) Precip ( " mm )
12:54 am 00:54 Clear 62 16.7 52 11.1 70 70 S 10 17 30 1016 10 16.0934 0 0
1:54 am 01:54 Clear 62 16.7 53 11.7 73 73 S 14 22 29.98 1015 10 16.0934 0 0
2:54 am 02:54 Clear 62 16.7 55 12.8 78 78 S 14 22 29.97 1015 10 16.0934 0 0
3:54 am 03:54 Clear 62 16.7 56 13.3 80 80 S 10 17 29.96 1015 10 16.0934 0 0
4:54 am 04:54 Clear 62 16.7 57 13.9 84 84 S 13 20 29.95 1014 10 16.0934 0 0
5:54 am 05:54 Clear 60 15.6 57 13.9 90 90 S 10 17 29.94 1014 10 16.0934 0 0
6:54 am 06:54 Clear 61 16.1 58 14.4 90 90 S 12 19 29.93 1013 10 16.0934 0 0
7:54 am 07:54 Sunny 63 17.2 59 15 87 87 S 18 30 29.9 1012 10 16.0934 0 0
8:54 am 08:54 Sunny 64 17.8 59 15 84 84 S 17 28 29.9 1013 10 16.0934 0 0
9:54 am 09:54 Sunny 68 20 60 15.6 76 76 SSW 21 33 29.9 1012 10 16.0934 0 0
10:54 am 10:54 Sunny 72 22.2 61 16.1 68 68 SSW 20 31 29.89 1012 10 16.0934 0 0
11:54 am 11:54 Sunny 76 24.4 60 15.6 58 58 SSW 25 41 29.86 1011 10 16.0934 0 0
12:54 pm 12:54 Sunny 79 26.1 59 15 50 50 SW 17 28 29.83 1010 10 16.0934 0 0
1:54 pm 13:54 Sunny 80 26.7 57 13.9 45 45 SSW 20 31 29.81 1009 10 16.0934 0 0
2:54 pm 14:54 Sunny 83 28.3 57 13.9 41 41 SSW 24 39 29.78 1008 10 16.0934 0 0
3:54 pm 15:54 Sunny 82 27.8 57 13.9 42 42 SW 17 28 29.78 1008 10 16.0934 0 0
4:54 pm 16:54 Sunny 81 27.2 58 14.4 45 45 WSW 12 19 29.79 1009 10 16.0934 0 0
5:54 pm 17:54 Sunny 79 26.1 57 13.9 47 47 SW 8 13 29.79 1009 10 16.0934 0 0
6:54 pm 18:54 Clear 71 21.7 57 13.9 61 61 SSW 5 7 29.81 1009 10 16.0934 0 0
7:54 pm 19:54 Clear 66 18.9 56 13.3 70 70 SSW 3 6 29.83 1010 10 16.0934 0 0
8:54 pm 20:54 Clear 65 18.3 56 13.3 73 73 SSW 5 7 29.84 1010 10 16.0934 0 0
9:54 pm 21:54 Clear 63 17.2 55 12.8 76 76 Calm 29.84 1011 10 16.0934 0 0
10:54 pm 22:54 Clear 64 17.8 55 12.8 73 73 SSE 3 6 29.84 1011 10 16.0934 0 0
11:54 pm 23:54 Clear 60 15.6 54 12.2 80 80 S 3 6 29.85 1011 10 16.0934 0 0

Powered by AerisWeather